Flag for Germany Weather past 2 weeks in Kamp-Lintfort, North Rhine-Westphalia, Germany

Now
63 °F

Overcast.


Feels Like: 63 °F
Forecast: 57 / 75 °F
Wind: 1 mph from East

Location: Duesseldorf

Current Time: Sep 15, 2014 at 12:18:02 PM

Latest Report: Sep 15, 2014 at 11:00 AM


Visibility: 13 mi

Pressure: 30.05 "Hg

Humidity: 79%

Dew point: 57 °F

Location of Kamp-LintfortLocation

Historic Weather in Kamp-Lintfort — Graph

°F

Kamp-Lintfort temperature yesterday

Maximum temperature yesterday: 69 °F (at 4:00 PM)
Minimum temperature yesterday: 51 °F (at 1:00 AM)
Average temperature yesterday: 60 °F

Past Weeks' High & Low Weather Summary

 TemperatureHumidityPressure
High75 °F (Sep 5, 6:00 PM)97% (Sep 1, 9:00 AM)30.25 "Hg (Sep 1, 9:00 AM)
Low46 °F (Sep 12, 8:00 AM)49% (Sep 11, 6:00 PM)29.89 "Hg (Sep 6, 6:00 PM)
Average61 °F80%30.09 "Hg
* Reported Aug 31 11:00 AM — Sep 15 11:00 AM, Kamp-Lintfort, Weather by CustomWeather, © 2014

Note: Actual official high and low records may vary slightly from our data, if they occured in-between our weather recording intervals... More about our weather records

Advertising

Kamp-Lintfort weather history for previous 24 hours

 ConditionsComfort  
Time TempWeatherWind HumidityBarometerVisibility
11:00 AM
Sep 15
63 °FOvercast.1 mph79%30.05 "Hg12 mi
10:00 AM61 °FPartly sunny.1 mph80%30.05 "Hg9 mi
9:00 AM58 °FScattered clouds.1 mph85%30.05 "Hg9 mi
8:00 AM51 °FFog.2 mph95%30.05 "Hg9 mi
7:00 AM52 °FFog.2 mph95%30.05 "Hg7 mi
6:00 AM52 °FFog.1 mph94%30.04 "Hg1 mi
5:00 AM54 °FFog.2 mph94%30.06 "Hg19 mi
4:00 AM56 °FPassing clouds.1 mph93%30.06 "Hg19 mi
3:00 AM56 °FPassing clouds.1 mph93%30.06 "Hg16 mi
2:00 AM57 °FPassing clouds.1 mph87%30.07 "Hg16 mi
1:00 AM58 °FOvercast.1 mph89%30.07 "Hg19 mi
12:00 AM56 °FOvercast.1 mph92%30.08 "Hg19 mi
11:00 PM
Sep 14
56 °FClear.1 mph90%30.08 "Hg19 mi
10:00 PM59 °FClear.2 mph85%30.08 "Hg16 mi
9:00 PM61 °FPassing clouds.2 mph80%30.08 "Hg19 mi
8:00 PM64 °FPassing clouds.2 mph72%30.08 "Hg19 mi
7:00 PM67 °FPassing clouds.3 mph65%30.08 "Hg22 mi
6:00 PM69 °FPassing clouds.3 mph58%30.09 "Hg22 mi
4:00 PM69 °FScattered clouds.5 mph61%30.11 "Hg17 mi
3:00 PM67 °FScattered clouds.3 mph63%30.12 "Hg19 mi
2:00 PM67 °FScattered clouds.5 mph68%30.14 "Hg19 mi
1:00 PM66 °FScattered clouds.1 mph71%30.15 "Hg16 mi
12:00 PM64 °FScattered clouds.5 mph74%30.17 "Hg16 mi
Weather by CustomWeather, © 2014

See weather overviewHow to use our weather pages